Regional Weather Roundup
Issued by NWS

Home | Current Version | Previous Version | Text Only | Print | Product List | Glossary On
Versions: 1 2 3 4 5 6 7 8 9 10 11 12 13 14 15 16 17 18 19 20 21 22 23 24 25 26 27 28 29 30 31 32 33 34 35 36 37 38 39 40 41 42 43 44 45 46 47 48 49 50
000
ASUS43 KFSD 270410
RWRSD

WEATHER ROUNDUP FOR SOUTH DAKOTA
NATIONAL WEATHER SERVICE SIOUX FALLS SD
1000 PM CST FRI DEC 26 2014

NOTE: "FAIR" INDICATES FEW OR NO CLOUDS BELOW 12,000 FEET WITH NO
SIGNIFICANT WEATHER AND/OR OBSTRUCTIONS TO VISIBILITY.


SDZ001>005-009-010-012>017-270500-
NORTHWEST AND NORTH CENTRAL SOUTH DAKOTA

CITY           SKY/WX    TMP DP  RH WIND       PRES   REMARKS
BUFFALO          N/A     11   7  84 SW7       30.04S WCI   0
FAITH            N/A     10   5  80 W8        30.13S WCI  -2
MOBRIDGE       PTCLDY     3   0  87 CALM      30.16S
$$

SDZ012>016-024>037-041>051-057-063-072>074-270500-
SOUTHWEST AND SOUTH CENTRAL SOUTH DAKOTA

CITY           SKY/WX    TMP DP  RH WIND       PRES   REMARKS
RAPID CTY ARPT CLOUDY    15  12  88 CALM      30.12S
PIERRE         MOCLDY    14   9  80 CALM      30.18R
CUSTER         MOCLDY     8   4  83 W3        29.96S
ELLSWORTH AFB  PTCLDY    16  12  86 W5        30.11S WCI   9
PHILIP         MOCLDY     6   2  83 W7        30.17R WCI  -6
PINE RIDGE     CLOUDY    17  10  74 N3        30.13R
SPEARFISH      FAIR      10   7  85 SW5       30.07S WCI   2
WINNER         LGT SNOW  19  13  77 N13       30.14S WCI   6
$$

SDZ004>011-016>023-039-040-270500-
NORTHEAST SOUTH DAKOTA

CITY           SKY/WX    TMP DP  RH WIND       PRES   REMARKS
ABERDEEN       CLOUDY    13   8  81 N14       30.20F WCI  -2
WATERTOWN      CLOUDY    19  15  84 N12       30.11R WCI   7
SISSETON         N/A     16  13  88 N18       30.17S WCI   0
$$

SDZ017-020-022-023-036>040-048>070-270500-
SOUTHEAST SOUTH DAKOTA

CITY           SKY/WX    TMP DP  RH WIND       PRES   REMARKS
SIOUX FALLS    LGT SNOW  22  20  92 N9        30.08R VSB 1   WCI  12
HURON          CLOUDY    18  14  84 N14       30.17S WCI   4
CHAMBERLAIN    CLOUDY    17  13  84 N12       30.16S WCI   4
MITCHELL       LGT SNOW  21  19  92 N15       30.15F FOG     WCI   8
YANKTON        CLOUDY    23  19  86 N13       30.12R WCI  11
$$

ABBREVIATIONS USED IN REMARKS
   TC - TEMPERATURE IN CELSIUS
  WCI - WIND CHILL INDEX
   HX - HEAT INDEX
  VSB - VISIBILITY



USA.gov is the U.S. government's official web portal to all federal, state and local government web resources and services.